Provincetown, MA

6:02 PM EST on December 14, 2017 (GMT -0500)
Provincetown Municipal

Weather History for KPVC - September, 2013

Change the Weather History Date:

Monday, September 16, 2013

  Actual Average Record
Temperature  
Mean Temperature 60 °F -  
Max Temperature 64 °F 68 °F 79 °F (1951)
Min Temperature 55 °F 56 °F 41 °F (2016)
Degree Days  
Heating Degree Days 6    
Growing Degree Days 10 (Base 50)    
Moisture  
Dew Point 53 °F    
Average Humidity 79    
Maximum Humidity 94    
Minimum Humidity 67    
Precipitation  
Precipitation 0.03 in - - ()
Sea Level Pressure  
Sea Level Pressure 30.07 in    
Wind  
Wind Speed 10 mph (WNW)    
Max Wind Speed 22 mph    
Max Gust Speed 31 mph    
Visibility 10 miles    
Events      
Averages and records for this station are not official NWS values.
T = Trace of Precipitation, MM = Missing Value Source: NWS Daily Summary

Daily Weather History Graph

Daily Weather History Graph

Search for Another Location

Airport or City:

Trip Planner

Search our weather history database for the weather conditions in past years. The results will help you decide how hot, cold, wet, or windy it might be!

Date:

Astronomy

Sep. 16, 2013 Rise Set
Actual Time 6:22 AM EDT 6:48 PM EDT
Civil Twilight 5:54 AM EDT 7:16 PM EDT
Nautical Twilight 5:21 AM EDT 7:49 PM EDT
Astronomical Twilight 4:47 AM EDT 8:23 PM EDT
Moon 4:57 PM EDT (9/16) 3:01 AM EDT (9/16)
Length of Visible Light 13h 22m
Length of Day
12h 26m
Waxing Gibbous, 90% of the Moon is Illuminated
Sep 16
Waxing Gibbous
Sep 19
Full
Sep 26
Last Quarter
Oct 4
New
Oct 11
First Quarter

Hourly Weather History & Observations

Time (EDT) Temp. Dew Point Humidity Pressure Visibility Wind Dir Wind Speed Gust Speed Precip Events Conditions
12:15 AM 57.2 °F 51.8 °F 82% 30.07 in 10.0 mi WSW 11.5 mph - N/A   Clear
12:35 AM 59.0 °F 51.8 °F 77% 30.07 in 10.0 mi WSW 10.4 mph - N/A   Clear
12:55 AM 59.0 °F 51.8 °F 77% 30.07 in 10.0 mi WSW 11.5 mph - N/A   Clear
1:15 AM 59.0 °F 51.8 °F 77% 30.06 in 10.0 mi WSW 11.5 mph - 0.01 in   Clear
1:35 AM 59.0 °F 53.6 °F 82% 30.06 in 10.0 mi WSW 11.5 mph - 0.01 in   Clear
1:55 AM 59.0 °F 53.6 °F 82% 30.06 in 10.0 mi WSW 12.7 mph - 0.01 in   Clear
2:15 AM 59.0 °F 53.6 °F 82% 30.06 in 10.0 mi WSW 10.4 mph - 0.01 in   Clear
2:35 AM 59.0 °F 53.6 °F 82% 30.05 in 10.0 mi SW 10.4 mph - 0.01 in   Clear
2:55 AM 57.2 °F 53.6 °F 88% 30.04 in 10.0 mi SW 10.4 mph - 0.01 in   Clear
3:15 AM 57.2 °F 53.6 °F 88% 30.04 in 10.0 mi SW 9.2 mph - N/A   Clear
3:35 AM 59.0 °F 53.6 °F 82% 30.04 in 10.0 mi SW 9.2 mph - N/A   Clear
3:55 AM 59.0 °F 53.6 °F 82% 30.04 in 10.0 mi SW 9.2 mph - N/A   Clear
4:15 AM 57.2 °F 53.6 °F 88% 30.04 in 10.0 mi WSW 11.5 mph - N/A   Clear
4:35 AM 59.0 °F 55.4 °F 88% 30.04 in 10.0 mi WSW 11.5 mph - N/A   Clear
4:55 AM 59.0 °F 55.4 °F 88% 30.04 in 10.0 mi WSW 12.7 mph - N/A   Clear
5:15 AM 59.0 °F 55.4 °F 88% 30.04 in 10.0 mi WSW 12.7 mph - N/A   Clear
5:35 AM 59.0 °F 55.4 °F 88% 30.04 in 10.0 mi WSW 12.7 mph - N/A   Clear
5:55 AM 59.0 °F 55.4 °F 88% 30.04 in 10.0 mi WSW 11.5 mph - N/A   Clear
6:15 AM 59.0 °F 55.4 °F 88% 30.04 in 10.0 mi WSW 9.2 mph - N/A   Clear
6:35 AM 57.2 °F 55.4 °F 94% 30.04 in 10.0 mi SW 9.2 mph - N/A   Clear
6:55 AM 59.0 °F 55.4 °F 88% 30.04 in 10.0 mi WSW 8.1 mph - N/A   Clear
7:15 AM 60.8 °F 57.2 °F 88% 30.04 in 10.0 mi West 9.2 mph - N/A   Clear
7:35 AM 60.8 °F 57.2 °F 88% 30.04 in 10.0 mi West 8.1 mph - N/A   Clear
7:55 AM 60.8 °F 55.4 °F 82% 30.05 in 10.0 mi West 8.1 mph - N/A   Clear
8:15 AM 60.8 °F 55.4 °F 82% 30.05 in 10.0 mi WSW 9.2 mph - N/A   Scattered Clouds
8:35 AM 60.8 °F 53.6 °F 77% 30.06 in 10.0 mi West 10.4 mph - N/A   Scattered Clouds
8:55 AM 60.8 °F 53.6 °F 77% 30.05 in 10.0 mi WNW 9.2 mph - N/A   Clear
9:15 AM 60.8 °F 53.6 °F 77% 30.05 in 10.0 mi WNW 10.4 mph - N/A   Partly Cloudy
9:35 AM 60.8 °F 53.6 °F 77% 30.07 in 10.0 mi WNW 11.5 mph - N/A   Partly Cloudy
9:55 AM 62.6 °F 53.6 °F 72% 30.07 in 10.0 mi WNW 11.5 mph - N/A   Scattered Clouds
10:15 AM 60.8 °F 53.6 °F 77% 30.07 in 10.0 mi NW 6.9 mph - N/A   Overcast
10:35 AM 60.8 °F 53.6 °F 77% 30.07 in 10.0 mi NNW 6.9 mph - N/A   Overcast
10:55 AM 60.8 °F 53.6 °F 77% 30.07 in 10.0 mi NNW 5.8 mph - N/A   Mostly Cloudy
11:15 AM 60.8 °F 53.6 °F 77% 30.07 in 10.0 mi NNW 6.9 mph - N/A   Overcast
11:35 AM 60.8 °F 53.6 °F 77% 30.07 in 10.0 mi North 3.5 mph - N/A   Overcast
11:55 AM 60.8 °F 53.6 °F 77% 30.06 in 10.0 mi NNW 5.8 mph - N/A   Overcast
12:15 PM 60.8 °F 51.8 °F 72% 30.06 in 10.0 mi NNW 5.8 mph - N/A   Overcast
12:35 PM 60.8 °F 51.8 °F 72% 30.06 in 10.0 mi NW 5.8 mph - N/A   Overcast
12:55 PM 60.8 °F 53.6 °F 77% 30.05 in 10.0 mi WNW 3.5 mph - N/A   Overcast
1:15 PM 60.8 °F 53.6 °F 77% 30.05 in 10.0 mi WSW 5.8 mph - N/A   Overcast
1:35 PM 60.8 °F 53.6 °F 77% 30.04 in 10.0 mi WSW 5.8 mph - N/A   Overcast
1:55 PM 60.8 °F 53.6 °F 77% 30.05 in 10.0 mi SW 8.1 mph - N/A   Overcast
2:15 PM 60.8 °F 53.6 °F 77% 30.05 in 10.0 mi WSW 6.9 mph - N/A   Overcast
2:35 PM 60.8 °F 53.6 °F 77% 30.04 in 10.0 mi WSW 8.1 mph - N/A   Overcast
2:55 PM 60.8 °F 51.8 °F 72% 30.04 in 10.0 mi West 9.2 mph - N/A   Overcast
3:15 PM 62.6 °F 53.6 °F 72% 30.04 in 10.0 mi West 8.1 mph - 0.01 in   Overcast
3:35 PM 62.6 °F 53.6 °F 72% 30.04 in 10.0 mi West 8.1 mph - 0.01 in   Mostly Cloudy
3:55 PM 64.4 °F 53.6 °F 68% 30.04 in 10.0 mi West 8.1 mph - 0.01 in   Partly Cloudy
4:15 PM 62.6 °F 53.6 °F 72% 30.03 in 10.0 mi West 5.8 mph - N/A   Clear
4:35 PM 62.6 °F 53.6 °F 72% 30.04 in 10.0 mi West 6.9 mph - N/A   Mostly Cloudy
4:55 PM 62.6 °F 51.8 °F 68% 30.04 in 10.0 mi West 6.9 mph - N/A   Overcast
5:15 PM 62.6 °F 53.6 °F 72% 30.04 in 10.0 mi WNW 4.6 mph - N/A   Overcast
5:35 PM 62.6 °F 53.6 °F 72% 30.05 in 10.0 mi WNW 5.8 mph - N/A   Overcast
5:55 PM 62.6 °F 53.6 °F 72% 30.06 in 10.0 mi WNW 4.6 mph - N/A   Overcast
6:15 PM 60.8 °F 53.6 °F 77% 30.06 in 10.0 mi WNW 3.5 mph - N/A   Overcast
6:35 PM 60.8 °F 53.6 °F 77% 30.06 in 10.0 mi NW 4.6 mph - N/A   Overcast
6:55 PM 60.8 °F 53.6 °F 77% 30.07 in 10.0 mi NNW 11.5 mph - N/A   Overcast
7:15 PM 60.8 °F 53.6 °F 77% 30.08 in 10.0 mi North 10.4 mph - N/A   Overcast
7:35 PM 60.8 °F 55.4 °F 82% 30.09 in 10.0 mi North 11.5 mph - N/A   Overcast
7:55 PM 60.8 °F 53.6 °F 77% 30.10 in 10.0 mi North 10.4 mph - N/A   Overcast
8:15 PM 60.8 °F 53.6 °F 77% 30.11 in 10.0 mi North 10.4 mph - N/A   Overcast
8:35 PM 60.8 °F 53.6 °F 77% 30.12 in 10.0 mi North 10.4 mph - N/A   Overcast
8:55 PM 60.8 °F 53.6 °F 77% 30.12 in 10.0 mi North 16.1 mph 21.9 mph N/A   Overcast
9:15 PM 60.8 °F 51.8 °F 72% 30.14 in 10.0 mi NNW 16.1 mph - N/A   Overcast
9:35 PM 55.4 °F 51.8 °F 88% 30.14 in 9.0 mi NNW 19.6 mph 23.0 mph N/A   Overcast
9:55 PM 57.2 °F 53.6 °F 88% 30.15 in 10.0 mi NE 12.7 mph 17.3 mph N/A   Overcast
10:15 PM 55.4 °F 51.8 °F 88% 30.17 in 5.0 mi North 16.1 mph 23.0 mph N/A   Overcast
10:35 PM 55.4 °F 48.2 °F 77% 30.18 in 10.0 mi NNE 19.6 mph 31.1 mph N/A   Overcast
10:55 PM 55.4 °F 46.4 °F 72% 30.19 in 10.0 mi North 18.4 mph 29.9 mph N/A   Overcast
11:15 PM 55.4 °F 46.4 °F 72% 30.20 in 10.0 mi North 21.9 mph 28.8 mph N/A   Overcast
11:35 PM 55.4 °F 46.4 °F 72% 30.20 in 10.0 mi North 18.4 mph 29.9 mph N/A   Overcast
11:55 PM 55.4 °F 44.6 °F 67% 30.21 in 10.0 mi NNE 18.4 mph 27.6 mph N/A   Overcast